Regional Weather Roundup
Issued by NWS

Home | Current Version | Previous Version | Graphics & Text | Print | Product List | Glossary On
Versions: 1 2 3 4 5 6 7 8 9 10 11 12 13 14 15 16 17 18 19 20 21 22 23 24 25 26 27 28 29 30 31 32 33 34 35 36 37 38 39 40 41 42 43 44 45 46 47 48 49 50
000
ASUS43 KLMK 250002
RWRKY
KENTUCKY REGIONAL WEATHER ROUNDUP
NATIONAL WEATHER SERVICE LOUISVILLE KY
700 PM EST SAT FEB 24 2018

NOTE "FAIR" INDICATES FEW OR NO CLOUDS BELOW 12,000 FEET
WITH NO SIGNIFICANT WEATHER AND/OR OBSTRUCTIONS TO VISIBILITY.

KYZ001>023-026-027-061>063-070>075-250100-
WESTERN AND SOUTH CENTRAL KENTUCKY

CITY           SKY/WX    TMP DP  RH WIND       PRES   REMARKS
PADUCAH        LGT RAIN  64  62  93 S7        29.70F
HENDERSON      RAIN      58  57  97 SE12      29.72F
OWENSBORO      LGT RAIN  57  56  96 E10       29.74
HOPKINSVILLE   FAIR      66  64  94 SE8       29.76F
BOWLING GREEN  CLOUDY    67  65  93 S7        29.82F
GLASGOW        NOT AVBL
$$

KYZ024-025-028>034-038-045-046-053-250100-
NORTH CENTRAL KENTUCKY

CITY           SKY/WX    TMP DP  RH WIND       PRES   REMARKS
LOUISVILLE/SDF RAIN      55  54  96 N7        29.84F
LOUISVILLE/LOU HVY RAIN  54  54 100 NE5       29.84S VSB 3/4
FORT KNOX      HVY RAIN  55  55 100 CALM      29.85S FOG
$$

KYZ035>037-039>044-047>052-055>060-089>105-250100-
NORTHEAST KENTUCKY

CITY           SKY/WX    TMP DP  RH WIND       PRES   REMARKS
LEXINGTON      CLOUDY    59  56  89 SE9       29.87F
COVINGTON      CLOUDY    52  51  97 E10       29.88F
FRANKFORT      CLOUDY    56  53  90 SE7       29.83F
$$

KYZ054-064>069-076>088-106>120-250100-
SOUTHEAST KENTUCKY

CITY           SKY/WX    TMP DP  RH WIND       PRES   REMARKS
JACKSON        LGT RAIN  63  60  90 VRB3      29.95F
LONDON         FAIR      65  60  84 S7        29.93F
SOMERSET       FAIR      66  57  72 S8        29.92S
MIDDLESBORO    CLOUDY    67  59  76 S10G16    29.97F
MONTICELLO     FAIR      68  59  73 VRB7      29.92S
$$




USA.gov is the U.S. government's official web portal to all federal, state and local government web resources and services.